Regional Weather Roundup
Issued by NWS

Home | Current Version | Previous Version | Graphics & Text | Print | Product List | Glossary On
Versions: 1 2 3 4 5 6 7 8 9 10 11 12 13 14 15 16 17 18 19 20 21 22 23 24 25 26 27 28 29 30 31 32 33 34 35 36 37 38 39 40 41 42 43 44 45 46 47 48 49 50
000
ASUS43 KMKX 111611
RWRWI

WISCONSIN REGIONAL WEATHER ROUNDUP
NATIONAL WEATHER SERVICE MILWAUKEE/SULLIVAN WI
1100 AM CDT FRI JUL 11 2014

NOTE: "FAIR" INDICATES FEW OR NO CLOUDS BELOW 12,000 FEET WITH NO
SIGNIFICANT WEATHER AND/OR OBSTRUCTIONS TO VISIBILITY.

WIZ001-002-006>008-014>016-023>028-111700-
NORTHWEST WISCONSIN

CITY           SKY/WX    TMP DP  RH WIND       PRES   REMARKS
SUPERIOR ARPT  CLOUDY    58  57  97 CALM      29.93F
ASHLAND        CLOUDY    68  62  81 S14G22    29.97S
HAYWARD        CLOUDY    68  62  81 S16G23    30.00F
SIREN          CLOUDY    70  64  79 S10G20    29.97F
RICE LAKE      CLOUDY    68  62  79 S16G23    30.05R
LADYSMITH      CLOUDY    68  60  75 S13G22    30.08R
EAU CLAIRE     CLOUDY    67  60  78 S17G28    30.06R
MENOMONIE      DRIZZLE   64  62  91 S15G22    30.05F
NEW RICHMOND   PTSUNNY   69  63  82 S17G26    30.00F
OSCEOLA        CLOUDY    70  64  82 S18G30    30.00F
$$

WIZ003>005-009-010-017-018-111700-
NORTH CENTRAL WISCONSIN

CITY           SKY/WX    TMP DP  RH WIND       PRES   REMARKS
WOODRUFF       LGT RAIN  67  61  79 S10       30.07F
RHINELANDER    CLOUDY    68  58  70 SW10G20   30.10R
EAGLE RIVER    LGT RAIN  66  57  71 S7        30.08R
LAND O LAKES   LGT RAIN  66  59  77 CALM      30.09R
PHILLIPS       CLOUDY    68  61  78 S12G22    30.06S
TOMAHAWK       CLOUDY    68  58  71 S7        30.11R
MEDFORD        CLOUDY    68  59  74 S20G25    30.11R
MERRILL        CLOUDY    69  59  70 SW9G18    30.11R
$$

WIZ029-030-035-036-043>047-111700-
CENTRAL WISCONSIN

CITY           SKY/WX    TMP DP  RH WIND       PRES   REMARKS
WAUSAU         CLOUDY    72  58  61 S15       30.10S
MOSINEE        PTSUNNY   70  61  73 S16G23    30.12F
MARSHFIELD     CLOUDY    69  60  73 S15       30.12S
STEVENS POINT  CLOUDY    71  58  65 S14       30.13S
WAUPACA        PTSUNNY   78  62  56 S12       30.14S HX  80
WAUTOMA        PTSUNNY   75  60  59 S10       30.16R
WISC RAPIDS    PTSUNNY   72  59  63 S10       30.15R
CAMP DOUGLAS   CLOUDY    68  61  77 S6        30.16R
$$

WIZ011>013-019>022-031-037>040-048>050-111700-
NORTHEAST WISCONSIN

CITY           SKY/WX    TMP DP  RH WIND       PRES   REMARKS
ANTIGO         CLOUDY    68  60  75 S14G20    30.12S
STURGEON BAY   PTSUNNY   73  61  64 S12       30.14S
GREEN BAY      MOSUNNY   77  61  57 SW13      30.13S
MANITOWOC      MOSUNNY   72  59  63 S9        30.16S
APPLETON       PTSUNNY   77  57  50 S10G16    30.15S
CLINTONVILLE   PTSUNNY   77  57  50 S15       30.12S
OSHKOSH        MOSUNNY   76  60  57 SW13      30.14S
$$

WIZ032>034-041-042-053>061-111700-
SOUTHWEST WISCONSIN

CITY           SKY/WX    TMP DP  RH WIND       PRES   REMARKS
LA CROSSE      LGT RAIN  69  60  73 S10       30.13R
SPARTA         LGT RAIN  67  59  73 S9        30.15R
VIROQUA        PTSUNNY   65  59  80 S7        30.17R
BOSCOBEL       CLOUDY    71  59  65 VRB3      30.16R
PRAIRIE DU CHI CLOUDY    70  55  59 SE7       30.14F
PLATTEVILLE    FAIR      68  60  74 SE6       30.20R
$$

WIZ056-057-062-063-064-067-068-111700-
SOUTH CENTRAL WISCONSIN

CITY           SKY/WX    TMP DP  RH WIND       PRES   REMARKS
BARABOO/DELLS  CLOUDY    70  57  62 SW8       30.18R
LONE ROCK      CLOUDY    73  62  68 SE3       30.18R
WATERTOWN      MOSUNNY   75  59  56 S12       30.18R
MADISON        PTSUNNY   77  56  48 SW10G17   30.18R
MIDDLETON      FAIR      74  54  49 SW13      30.19R
MONROE         CLOUDY    72  57  60 S9        30.20R
JANESVILLE     NOT AVBL
$$

WIZ051-052-058>065-066-070>072-111700-
SOUTHEAST WISCONSIN

CITY           SKY/WX    TMP DP  RH WIND       PRES   REMARKS
MILWAUKEE      MOSUNNY   76  56  49 S7        30.18F
WAUKESHA       MOSUNNY   75  55  50 S9        30.19F
MILWAUKEE/TIMM SUNNY     75  54  46 SW9       30.18F
RACINE         SUNNY     75  57  53 SE12      30.20F
BURLINGTON     SUNNY     74  57  56 S6        30.19R
KENOSHA        SUNNY     77  58  51 S8        30.19F
FOND DU LAC    MOSUNNY   77  60  55 S12       30.16S
SHEBOYGAN      MOSUNNY   77  60  55 SW9       30.16F
WEST BEND      MOSUNNY   77  54  44 S10       30.17S
JUNEAU         MOSUNNY   74  42  31 S13       30.19R
$$

LSZ147-162-111700-
LAKE SUPERIOR

STATION/POSITION TIME  TEMP    WIND        PRES    WAVE
                       AIR SEA DIR/SP/G            HT/PER
                 (UTC) (F)     (DEG/KT/KT) (MB)    (FT/S)
W MID LAKE BUOY  1550   47 38  180/  6/  8 1015.1R   1/ 4
PORT WING        1516   69     190/ 15/ 26 1013.5S
SAXON HARBOR     1500          190/ 10/ 18 1014.9S
$$

LMZ867-665-643>646-111700-
LAKE MICHIGAN

STATION/POSITION TIME  TEMP    WIND        PRES    WAVE
                       AIR SEA DIR/SP/G            HT/PER
                 (UTC) (F)     (DEG/KT/KT) (MB)    (FT/S)
N MID LAKE BUOY  1550   58 54  190/ 16/ 17 1020.2F   3/ 4
NORTHPORT PIER   1500   65     140/  8/ 13 1020.3F
KEWAUNEE LAKESHO 1500   54     170/ 12/ 13 1021.8F
SHEBOYGAN LAKESH 1600   58     160/ 13/ 13 1021.8R
PORT WASHINGTON  1500   67     190/  6/  7 1022.4F
MILWAUKEE LAKESH 1500   62     120/ 10/ 11   N/A
S MID LAKE BUOY  1550   62 59  170/  6/  8 1023.2R   0
KENOSHA   LAKESH 1600   64     160/  8/ 11   N/A
$$

TC  - TEMPERATURE IN CELSIUS
VSB - VISIBILITY IN STATUTE MILES
WCI - WIND CHILL INDEX
HX  - HEAT INDEX



USA.gov is the U.S. government's official web portal to all federal, state and local government web resources and services.